User: anonymous   Login
Location: Unspecified
(0.0000°N, 0.0000°E)
Time: 08:31:01
(UTC+00:00)
Language:

ALSAT 1N - Orbit

View from above orbital plane
View from above orbital plane
View from above satellite
View from above satellite

Ground track
Ground track

The orbit data is extracted from the following two-line orbital elements,

1 41789U 16059G   24114.89689063  .00002808  00000-0  51408-3 0  9990
2 41789  97.8328 142.7662 0027760 167.8046 192.3837 14.66331840404939
Epoch (UTC): 23 April 2024 21:31:31
Eccentricity: 0.0027760
inclination: 97.8328°
perigee height: 653 km
apogee height: 692 km
right ascension of ascending node: 142.7662°
argument of perigee: 167.8046°
revolutions per day: 14.66331840
mean anomaly at epoch: 192.3837°
orbit number at epoch: 40493

The dashed part of the orbit path shows where the satellite is in the earth's shadow,  

DLR